Tracking 28799 objects as of 18-Apr-2024
HD Live streaming from Space Station
objects crossing your sky now

ARIANE 5 DEB (SYLDA)

Track ARIANE 5 DEB (SYLDA) now!
10-day predictions


NORAD ID: 33277
Int'l Code: 2008-038D
Perigee: 408.3 km
Apogee: 17,894.2 km
Inclination: 2.4 °
Period: 320.8 minutes
Semi major axis: 15522 km
RCS: 15.59 m2 (large)
Launch date: August 14, 2008
Source: France (FR)
Launch site: FRENCH GUIANA (FRGUI)

Note: This is SATELLITE DEBRIS
Your satellite tracking list
Your tracking list is empty




NASA's NSSDC Master Catalog

Two Line Element Set (TLE):
1 33277U 08038D   24108.43808513  .00008178  00000-0  70224-2 0  9999
2 33277   2.3890 185.0908 5632545   2.0603 359.5668  4.48923559208201
Source of the keplerian elements: AFSPC